Wind_Speed
15 15 15 16 18 20 21 20 18 16 17 16 15 15 14 12 10 8 6 4 3 3 3 4 3 3 2 2 2 1 1 2 2 2 3 3 3 3 2 2 1 1 1 1 1 1 1 2 2
14 14 14 15 18 20 21 19 17 17 17 17 16 15 13 11 10 8 6 4 3 2 2 3 3 3 3 2 2 1 1 2 2 2 3 4 3 3 3 2 2 1 1 1 1 1 1 1 2
13 13 13 16 19 19 19 19 18 18 18 17 16 14 13 11 10 8 6 4 3 2 1 2 2 3 3 4 3 3 2 2 2 2 3 4 4 4 3 3 2 2 1 1 1 1 1 1 2
12 13 14 16 18 18 17 18 19 18 17 16 16 14 13 13 11 9 8 6 4 3 1 2 3 4 4 4 5 4 3 3 3 3 4 4 4 4 4 4 3 3 2 2 1 1 1 1 1
10 12 14 16 17 16 16 18 18 18 17 17 16 16 15 14 12 11 10 8 6 4 1 2 3 4 5 5 5 5 4 3 3 4 4 4 4 4 4 3 3 3 3 2 2 1 1 1 1
8 10 12 15 15 14 15 16 16 17 18 19 17 16 15 14 13 12 12 10 8 4 2 2 4 5 6 7 7 6 5 4 4 4 3 4 4 3 3 3 3 3 3 3 2 2 1 1 1
7 11 13 14 14 13 12 13 15 16 17 17 17 17 16 14 13 12 11 11 8 5 3 2 4 5 7 8 7 7 6 5 5 4 4 4 3 3 3 3 3 2 2 2 2 1 1 1 1
7 10 13 13 11 10 10 11 14 15 16 17 17 16 16 15 13 12 11 10 8 6 3 2 3 4 6 8 8 8 7 6 6 5 5 4 4 4 4 3 3 2 2 2 1 1 1 1 1
6 9 10 10 8 7 7 10 12 14 15 17 17 16 16 15 14 13 11 10 9 7 4 3 4 5 6 8 9 9 9 8 7 6 6 5 5 4 4 4 3 2 2 2 1 1 1 1 1
5 6 7 7 5 6 7 8 10 13 14 16 17 15 15 14 14 14 12 11 9 8 6 4 4 5 6 7 8 9 9 9 8 7 7 6 5 5 4 4 4 3 2 2 2 1 1 1 1
3 3 4 4 4 5 7 8 9 11 13 14 16 15 15 14 14 14 13 12 10 9 7 5 4 4 5 6 8 9 10 10 9 8 7 7 6 5 5 4 4 3 2 2 2 1 2 2 1
4 1 1 1 2 4 6 7 8 11 13 15 17 17 16 16 15 14 13 12 10 10 8 6 5 5 5 6 8 10 10 10 9 9 8 7 6 5 5 4 4 3 3 2 2 1 1 2 2
5 3 1 2 2 3 5 7 8 10 12 15 17 16 17 16 15 14 12 11 10 10 9 7 7 5 3 4 7 9 10 10 10 9 9 8 7 6 6 5 4 4 4 3 2 1 1 2 2
3 2 1 1 1 3 5 7 8 10 12 14 16 16 16 16 16 14 12 11 10 9 9 8 6 5 4 4 5 7 10 10 10 10 10 9 8 7 6 6 5 4 4 4 3 2 2 2 2
3 1 1 1 1 3 5 6 8 11 13 16 17 16 16 17 15 14 12 11 10 10 9 9 8 6 5 5 5 7 8 10 11 11 12 11 9 8 7 6 6 5 4 4 3 3 3 3 3
3 2 2 1 1 4 6 8 10 12 14 16 18 17 17 16 16 14 13 12 11 10 10 9 8 7 5 4 5 6 8 9 10 10 11 12 11 10 8 7 7 6 5 4 4 3 3 3 3
5 5 4 2 2 4 7 10 12 14 16 17 18 18 17 17 16 15 14 13 12 11 10 9 8 8 7 4 4 6 7 8 9 11 11 12 12 11 10 9 7 7 6 5 5 4 4 3 4
7 6 4 3 4 7 9 11 13 15 18 18 18 18 18 17 17 16 15 14 12 11 10 10 8 8 7 5 4 5 6 8 10 12 12 12 12 11 11 10 9 8 7 7 6 5 5 4 4
9 7 4 3 4 8 10 11 14 15 17 18 18 18 18 17 17 17 16 14 11 10 9 9 8 7 7 6 5 5 6 8 10 10 12 12 12 12 12 11 10 9 9 8 7 7 7 7 6
11 8 6 5 8 10 11 12 14 15 16 17 18 17 16 16 17 16 16 13 11 9 8 8 7 7 6 6 5 4 6 7 8 10 10 10 11 11 12 11 11 10 10 10 9 9 9 9 8
11 9 8 9 10 12 13 13 14 16 16 16 17 18 16 16 16 16 15 13 10 9 8 7 7 7 6 6 6 5 5 6 7 8 9 9 10 11 12 12 11 11 11 11 10 10 10 10 10
11 10 11 12 13 14 15 15 16 16 16 15 16 17 16 14 16 16 14 11 10 9 8 7 7 7 7 6 6 4 4 5 6 7 9 10 11 11 12 12 11 11 10 10 11 11 11 11 11
12 12 13 14 15 15 16 17 16 17 16 15 16 16 16 15 15 14 12 10 9 8 8 7 7 7 7 6 6 5 5 5 6 8 9 10 11 12 12 12 12 12 12 11 11 12 12 12 12
14 14 15 15 15 15 15 17 16 17 17 15 16 16 16 15 14 12 11 10 9 8 7 7 7 7 6 6 6 5 5 6 7 8 10 11 11 12 13 13 13 13 13 13 13 13 12 13 13
15 15 16 15 15 13 13 15 16 18 18 15 15 15 16 15 14 12 11 10 9 8 8 7 7 7 6 6 6 6 6 7 7 8 10 12 12 13 13 13 13 13 14 14 14 14 14 14 14
14 16 16 15 15 14 14 14 15 17 18 15 13 14 14 14 14 12 11 9 8 8 8 7 7 7 7 7 7 7 7 8 7 8 9 11 12 12 14 14 14 14 14 14 14 14 15 15 15
15 15 16 17 17 18 16 15 17 16 15 15 14 14 14 13 12 11 10 10 9 8 8 7 7 8 7 7 6 7 7 8 7 9 9 10 11 12 12 13 14 15 15 15 15 16 16 17 17
16 16 18 18 19 20 19 18 17 17 16 14 14 14 13 12 12 10 9 10 9 9 8 8 8 8 7 6 6 6 7 7 7 8 9 10 10 11 12 12 13 14 15 16 16 16 17 17 18
16 17 19 19 20 21 21 20 18 18 18 17 16 16 14 12 11 10 9 9 9 8 9 8 8 8 7 7 7 7 8 8 8 8 9 10 11 12 12 14 14 15 16 16 17 17 18 18 19
19 18 18 20 20 21 22 21 20 20 20 19 17 16 13 10 9 10 10 9 9 9 10 10 9 8 8 8 8 9 9 9 9 10 10 10 10 11 12 13 14 14 16 17 18 19 18 19 19
Wind_Direction
95 85 77 71 60 55 51 47 45 44 47 46 41 36 35 36 39 43 42 51 63 88 114 139 143 144 147 159 157 164 288 324 333 322 305 297 292 282 270 267 255 222 195 182 168 157 139 128 127
96 91 82 72 59 52 48 44 40 38 42 42 41 38 37 37 38 39 39 37 46 80 128 152 153 157 163 177 182 196 248 296 310 310 302 301 298 291 286 278 266 249 237 241 228 171 149 140 136
99 92 86 74 61 51 44 39 36 33 33 33 36 37 37 40 38 36 35 30 42 66 123 177 186 183 190 205 212 219 242 271 289 294 296 299 299 297 294 287 275 266 267 258 241 227 188 159 139
99 96 89 72 61 51 40 34 29 25 28 29 30 32 37 38 36 32 31 31 29 26 7 219 221 215 215 220 224 229 238 248 264 278 288 289 289 292 289 281 276 280 271 261 256 244 209 169 145
104 101 89 75 65 53 38 30 25 18 19 23 24 28 35 36 30 25 27 25 13 351 326 230 225 220 222 228 230 227 229 241 257 264 274 280 289 294 288 272 276 277 265 260 267 255 217 182 158
96 90 82 76 69 51 34 22 17 15 19 19 22 28 30 32 29 22 20 19 5 348 303 250 235 224 220 224 228 229 228 233 247 256 263 273 287 292 288 280 274 266 256 257 264 259 236 205 175
97 86 82 81 72 55 31 14 8 9 12 13 15 20 22 27 30 25 18 18 7 359 330 267 241 234 225 224 226 229 230 232 240 251 258 269 278 283 284 280 282 275 263 260 257 256 229 196 181
92 85 77 77 66 54 23 4 1 0 4 7 9 11 15 20 26 23 14 16 14 1 343 278 245 235 229 227 228 228 231 232 237 246 252 262 272 277 280 278 275 272 269 273 271 248 217 195 179
92 85 75 70 59 38 10 353 353 354 357 2 3 4 9 15 22 19 15 14 9 1 346 290 258 247 237 232 229 227 230 232 235 240 247 257 270 270 270 264 261 263 266 272 274 242 202 197 195
114 91 63 59 40 357 343 336 346 349 355 358 357 0 3 10 17 16 14 9 5 360 352 322 279 250 239 233 231 229 229 231 233 238 244 252 260 262 262 254 253 256 257 259 261 240 222 206 203
180 121 80 44 10 334 320 324 336 341 348 350 352 354 355 359 5 7 8 5 3 357 357 346 308 271 245 245 238 233 230 230 233 236 241 245 249 251 252 250 252 253 257 259 254 248 235 216 212
239 214 112 355 323 310 312 320 325 329 338 344 347 346 349 352 358 1 3 4 2 357 355 349 324 285 263 252 243 236 232 229 230 233 237 241 245 242 237 244 246 250 252 254 248 255 240 234 239
257 260 254 273 291 311 302 306 316 325 337 342 349 351 349 351 356 359 1 2 1 1 360 347 334 311 296 262 242 231 229 226 224 228 229 230 234 234 231 236 241 248 249 245 239 246 253 245 246
266 262 254 248 290 317 304 301 313 325 335 342 347 348 347 348 353 353 354 356 356 355 354 354 348 326 310 288 249 238 228 224 223 223 223 224 226 227 232 234 236 240 241 237 235 238 251 251 253
275 287 283 274 306 326 327 318 315 322 332 341 344 346 345 345 348 346 346 346 348 348 350 350 345 339 314 282 252 238 229 224 222 221 220 219 218 218 224 228 227 230 232 230 234 238 249 256 257
240 226 202 208 358 349 335 328 317 320 331 336 337 341 344 345 345 345 343 340 342 345 343 343 343 342 326 292 248 246 232 222 219 219 217 216 216 217 220 220 220 223 226 232 234 236 245 255 262
237 238 241 259 315 325 327 320 317 321 326 329 330 336 342 344 342 342 341 337 336 339 341 338 338 340 328 303 264 248 230 224 220 220 216 215 216 217 216 218 220 222 225 232 235 237 246 259 264
249 252 245 273 309 303 313 314 312 315 318 323 328 332 338 340 340 341 338 333 332 335 336 333 333 332 329 311 278 251 232 230 224 222 218 216 216 215 217 221 223 224 228 234 237 239 243 253 262
246 245 248 256 274 288 295 301 299 304 311 317 324 325 329 335 340 341 338 331 328 328 330 329 326 323 324 324 298 266 246 236 223 218 218 216 215 215 220 221 223 226 229 233 238 243 244 248 255
247 245 240 258 262 274 280 279 282 291 302 313 316 321 326 334 340 340 339 334 329 324 322 323 317 319 322 326 315 281 254 238 225 219 214 215 215 219 223 222 223 228 232 236 239 243 245 248 251
244 249 244 254 257 263 269 271 276 283 294 305 310 315 324 334 337 337 339 332 329 324 319 317 313 319 319 315 310 290 264 242 232 221 219 221 222 221 224 227 228 232 236 239 242 243 246 250 251
242 244 246 245 248 254 260 267 271 277 284 296 309 317 324 332 333 334 333 329 327 327 324 318 312 311 309 304 304 299 282 252 239 230 226 225 224 226 228 230 232 235 241 244 247 249 250 252 253
245 243 246 249 253 256 259 265 270 271 278 290 307 316 325 329 328 330 330 325 324 324 321 316 316 313 306 304 299 294 281 254 241 235 234 232 230 230 230 235 237 240 245 248 251 250 250 252 254
245 245 249 253 257 258 260 263 264 268 274 286 305 316 319 322 327 326 326 327 327 316 309 308 310 312 308 301 296 294 278 259 251 243 239 236 236 237 235 241 239 242 247 249 252 252 250 252 254
249 249 251 252 253 253 258 266 274 273 271 280 299 308 315 318 321 322 322 323 327 322 308 305 305 300 299 293 284 283 276 269 261 252 243 239 239 240 239 241 239 245 247 249 251 253 252 254 256
252 252 253 255 252 249 255 270 282 286 281 281 292 302 309 314 318 319 321 322 323 321 317 305 308 302 295 289 282 278 277 279 264 256 250 245 245 244 245 243 244 245 248 251 253 253 253 256 260
245 250 252 254 254 254 257 269 279 286 288 285 285 293 300 312 318 324 327 328 326 321 318 312 301 301 301 289 286 278 282 280 265 255 258 250 247 247 244 245 246 251 252 255 254 253 255 259 261
245 245 247 253 256 257 260 266 279 294 298 292 298 304 300 308 314 319 323 327 331 329 320 313 306 299 299 292 287 280 283 285 278 258 259 254 253 253 254 253 254 255 258 258 256 257 258 260 260
241 242 247 253 258 259 259 264 275 288 294 295 305 309 305 307 313 330 333 330 331 333 330 321 315 305 297 294 288 287 282 281 279 270 264 260 258 255 254 257 261 261 261 260 258 261 262 262 262
239 242 245 252 259 261 259 261 268 278 288 293 301 307 306 314 319 330 335 332 334 334 328 323 317 311 304 295 290 290 291 291 285 278 271 270 269 260 257 260 261 261 262 261 261 264 263 263 264
Height
5907 5906 5906 5907 5906 5904 5902 5903 5902 5902 5901 5900 5899 5899 5898 5897 5897 5898 5895 5894 5893 5893 5893 5894 5894 5895 5896 5896 5897 5898 5898 5899 5899 5900 5900 5900 5900 5900 5900 5899 5899 5899 5899 5899 5899 5899 5899 5898 5898
5908 5908 5909 5908 5906 5904 5904 5904 5904 5903 5903 5902 5901 5901 5899 5898 5896 5896 5895 5894 5894 5894 5894 5895 5895 5896 5896 5897 5898 5898 5899 5899 5900 5900 5900 5901 5900 5900 5900 5900 5899 5899 5899 5899 5899 5899 5899 5898 5898
5910 5910 5911 5909 5907 5906 5906 5906 5905 5904 5903 5903 5903 5902 5901 5899 5897 5896 5895 5895 5894 5894 5895 5895 5895 5896 5896 5897 5898 5898 5899 5900 5900 5900 5901 5901 5901 5901 5901 5900 5900 5900 5900 5899 5899 5899 5899 5899 5899
5912 5912 5912 5910 5908 5908 5907 5907 5907 5906 5906 5904 5903 5903 5902 5900 5898 5897 5896 5895 5894 5894 5894 5895 5895 5896 5896 5897 5898 5898 5899 5900 5900 5901 5901 5901 5901 5901 5901 5901 5901 5900 5900 5900 5899 5899 5899 5899 5899
5914 5914 5913 5911 5909 5909 5909 5908 5909 5908 5908 5906 5905 5903 5902 5901 5898 5896 5895 5895 5894 5894 5894 5894 5894 5895 5896 5896 5897 5898 5899 5900 5900 5901 5901 5901 5901 5901 5901 5901 5901 5901 5900 5900 5900 5900 5899 5899 5899
5916 5915 5914 5912 5911 5911 5910 5910 5910 5910 5909 5908 5906 5904 5903 5902 5899 5897 5895 5894 5894 5894 5894 5894 5894 5894 5895 5896 5897 5897 5898 5899 5900 5900 5901 5901 5901 5901 5901 5901 5901 5901 5900 5900 5900 5900 5900 5900 5900
5918 5916 5914 5914 5913 5912 5913 5912 5912 5911 5910 5909 5907 5905 5904 5903 5901 5898 5896 5895 5894 5893 5893 5893 5893 5893 5894 5895 5896 5897 5898 5898 5899 5900 5900 5901 5901 5901 5901 5901 5901 5901 5900 5900 5900 5900 5900 5900 5900
5918 5917 5915 5915 5914 5914 5915 5913 5913 5912 5911 5910 5908 5906 5904 5903 5901 5899 5896 5895 5894 5893 5892 5892 5892 5893 5893 5894 5895 5896 5897 5898 5898 5899 5900 5900 5901 5901 5901 5901 5901 5901 5901 5900 5900 5900 5900 5900 5900
5918 5918 5916 5916 5916 5916 5915 5915 5914 5913 5911 5910 5908 5907 5905 5903 5901 5899 5897 5895 5894 5893 5892 5891 5891 5891 5892 5893 5894 5895 5896 5897 5897 5898 5899 5900 5900 5900 5900 5900 5900 5900 5900 5900 5900 5900 5900 5901 5900
5919 5918 5917 5917 5917 5916 5916 5915 5914 5913 5912 5911 5909 5907 5905 5903 5901 5899 5897 5895 5894 5892 5891 5890 5890 5890 5890 5891 5892 5893 5894 5895 5896 5897 5898 5899 5899 5900 5900 5900 5900 5900 5900 5900 5900 5900 5900 5901 5901
5919 5918 5917 5917 5917 5917 5916 5916 5915 5913 5912 5912 5910 5907 5905 5903 5901 5899 5897 5895 5894 5892 5890 5889 5889 5888 5889 5890 5890 5891 5892 5894 5895 5896 5897 5898 5898 5899 5899 5899 5900 5900 5900 5900 5900 5900 5900 5900 5900
5919 5918 5916 5916 5917 5917 5916 5915 5914 5913 5913 5912 5910 5907 5905 5903 5900 5898 5897 5895 5893 5891 5889 5888 5888 5887 5887 5887 5888 5889 5890 5892 5893 5894 5895 5896 5897 5897 5898 5899 5899 5899 5900 5900 5899 5900 5900 5900 5900
5918 5918 5917 5916 5916 5916 5915 5914 5914 5913 5912 5911 5909 5907 5905 5902 5899 5897 5896 5895 5893 5891 5889 5887 5885 5885 5885 5885 5886 5887 5888 5890 5891 5892 5894 5895 5896 5896 5897 5898 5898 5899 5899 5899 5899 5899 5899 5900 5900
5918 5917 5916 5916 5916 5915 5915 5914 5913 5912 5911 5910 5909 5906 5904 5901 5898 5897 5895 5894 5892 5890 5888 5886 5885 5885 5884 5884 5884 5885 5886 5887 5889 5890 5892 5893 5894 5896 5896 5897 5897 5898 5898 5899 5899 5899 5899 5899 5899
5917 5917 5916 5916 5915 5915 5914 5913 5912 5911 5910 5909 5908 5906 5903 5900 5898 5895 5894 5891 5890 5889 5887 5885 5884 5883 5883 5882 5882 5883 5884 5885 5887 5888 5890 5891 5893 5894 5895 5896 5897 5897 5898 5898 5898 5898 5898 5899 5899
5917 5916 5916 5915 5914 5914 5914 5912 5911 5909 5909 5908 5907 5905 5903 5900 5897 5895 5892 5889 5888 5887 5886 5884 5883 5882 5881 5880 5881 5881 5881 5883 5885 5886 5888 5889 5891 5892 5894 5895 5895 5896 5897 5897 5897 5897 5898 5898 5898
5915 5915 5914 5914 5913 5912 5912 5910 5909 5907 5907 5907 5905 5904 5902 5899 5897 5894 5891 5889 5887 5885 5884 5883 5881 5880 5879 5878 5879 5879 5879 5881 5883 5884 5886 5887 5889 5891 5892 5893 5894 5895 5896 5896 5896 5896 5897 5897 5897
5913 5913 5912 5912 5911 5911 5910 5909 5908 5907 5906 5905 5903 5902 5900 5898 5895 5892 5890 5887 5885 5884 5883 5882 5880 5879 5878 5877 5877 5877 5878 5879 5880 5882 5884 5885 5887 5889 5890 5892 5893 5893 5894 5895 5895 5896 5896 5896 5896
5911 5910 5910 5910 5910 5910 5909 5908 5907 5906 5904 5903 5902 5900 5899 5896 5894 5891 5888 5886 5884 5883 5882 5881 5880 5878 5877 5876 5876 5876 5876 5877 5878 5880 5881 5883 5885 5886 5888 5889 5890 5892 5892 5893 5894 5894 5895 5895 5895
5908 5908 5908 5908 5908 5907 5907 5907 5906 5904 5903 5902 5901 5899 5897 5895 5893 5889 5886 5884 5882 5881 5880 5880 5879 5878 5876 5875 5875 5875 5875 5875 5876 5878 5879 5881 5883 5884 5886 5887 5888 5889 5890 5891 5892 5892 5893 5893 5894
5905 5905 5906 5906 5906 5905 5905 5905 5903 5902 5902 5901 5900 5898 5896 5894 5891 5888 5886 5884 5882 5881 5879 5878 5877 5876 5876 5875 5874 5873 5874 5874 5875 5876 5877 5879 5880 5882 5883 5884 5885 5887 5888 5889 5889 5890 5890 5891 5892
5902 5902 5903 5903 5903 5903 5903 5902 5901 5899 5899 5899 5898 5897 5894 5892 5890 5888 5885 5883 5881 5880 5878 5877 5876 5875 5875 5874 5873 5872 5872 5873 5873 5874 5875 5876 5878 5879 5881 5882 5883 5884 5885 5886 5887 5887 5888 5888 5889
5898 5899 5899 5900 5899 5900 5899 5899 5899 5896 5896 5896 5895 5894 5892 5890 5888 5886 5884 5882 5880 5879 5877 5876 5875 5874 5873 5872 5872 5871 5871 5871 5871 5872 5873 5874 5875 5877 5878 5879 5880 5881 5882 5883 5884 5884 5885 5885 5886
5895 5895 5896 5896 5896 5897 5896 5896 5895 5894 5894 5894 5892 5891 5890 5889 5887 5885 5883 5880 5879 5877 5876 5875 5874 5873 5872 5871 5870 5870 5869 5869 5869 5870 5870 5871 5872 5873 5875 5876 5877 5878 5879 5880 5880 5881 5882 5882 5883
5891 5892 5892 5892 5893 5893 5893 5892 5893 5891 5891 5890 5889 5889 5889 5887 5885 5883 5881 5879 5877 5875 5874 5873 5872 5871 5870 5869 5869 5868 5868 5867 5867 5868 5868 5869 5870 5870 5872 5873 5874 5875 5875 5876 5877 5877 5878 5879 5879
5887 5888 5889 5890 5890 5890 5890 5889 5889 5888 5887 5886 5886 5886 5886 5884 5882 5880 5878 5877 5875 5874 5872 5871 5870 5869 5868 5867 5867 5866 5866 5865 5865 5866 5866 5866 5867 5868 5869 5870 5871 5871 5872 5873 5873 5874 5874 5875 5875
5882 5884 5885 5885 5885 5885 5886 5886 5885 5885 5884 5884 5883 5884 5883 5881 5879 5878 5876 5875 5873 5872 5871 5869 5868 5868 5866 5865 5865 5864 5864 5863 5863 5863 5863 5863 5864 5864 5865 5866 5867 5868 5868 5869 5869 5870 5870 5871 5871
5879 5880 5880 5881 5881 5881 5882 5882 5882 5881 5881 5880 5880 5880 5880 5879 5877 5875 5874 5873 5872 5870 5869 5868 5867 5866 5865 5864 5863 5862 5862 5861 5861 5861 5861 5861 5861 5862 5862 5863 5863 5864 5864 5865 5865 5865 5866 5866 5866
5874 5875 5876 5876 5877 5877 5878 5880 5879 5878 5878 5878 5878 5877 5876 5875 5874 5873 5872 5871 5870 5869 5867 5866 5865 5863 5862 5862 5861 5860 5860 5859 5859 5858 5858 5858 5858 5858 5859 5859 5860 5860 5860 5860 5860 5861 5861 5861 5862
5869 5870 5872 5873 5873 5873 5873 5877 5875 5875 5875 5875 5875 5874 5872 5872 5872 5871 5870 5869 5868 5867 5866 5864 5863 5861 5860 5860 5859 5858 5858 5857 5856 5856 5855 5855 5855 5855 5855 5856 5856 5856 5856 5856 5856 5856 5856 5856 5857